This demonstration page uses our WeatherBlox Daily Observations layout. Learn more.

39.92423, -83.80882

Hourly Observations for October 2, 2017

Temp ( °F °C ) Dew Point ( °F °C ) Humidity (%) Winds ( mph kmh ) Pressure ( in mb ) Visibility ( mi km ) Precip ( " mm )
12:56 am 00:56 Clear 50 10 42 5.6 74 74 SE 5 7 30.24 1024 10 16.0934 0 0
1:56 am 01:56 Clear 51 10.6 42 5.6 71 71 ESE 5 7 30.23 1024 10 16.0934 0 0
2:56 am 02:56 Clear 48 8.9 41 5 77 77 E 3 6 30.24 1024 10 16.0934 0 0
3:56 am 03:56 Clear 46 7.8 40 4.4 79 79 E 3 6 30.24 1024 10 16.0934 0 0
4:56 am 04:56 Clear 44 6.7 40 4.4 85 85 E 5 7 30.25 1025 10 16.0934 0 0
5:56 am 05:56 Clear 44 6.7 40 4.4 85 85 E 5 7 30.27 1025 10 16.0934 0 0
6:56 am 06:56 Clear 44 6.7 40 4.4 85 85 E 5 7 30.29 1026 10 16.0934 0 0
7:56 am 07:56 Sunny 44 6.7 40 4.4 85 85 ESE 3 6 30.31 1026 10 16.0934 0 0
8:56 am 08:56 Sunny 53 11.7 46 7.8 77 77 SE 5 7 30.32 1027 10 16.0934 0 0
9:56 am 09:56 Sunny 61 16.1 48 8.9 63 63 SSW 6 9 30.34 1027 10 16.0934 0 0
10:56 am 10:56 Sunny 67 19.4 49 9.4 53 53 S 6 9 30.34 1028 10 16.0934 0 0
11:56 am 11:56 Sunny 72 22.2 48 8.9 43 43 SSW 6 9 30.34 1027 10 16.0934 0 0
12:56 pm 12:56 Sunny 74 23.3 50 10 43 43 VRB 5 7 30.33 1027 10 16.0934 0 0
1:56 pm 13:56 Sunny 76 24.4 50 10 40 40 SW 6 9 30.31 1026 10 16.0934 0 0
2:56 pm 14:56 Sunny 78 25.6 50 10 37 37 S 8 13 30.29 1026 10 16.0934 0 0
3:56 pm 15:56 Sunny 78 25.6 50 10 37 37 SE 5 7 30.28 1025 10 16.0934 0 0
4:56 pm 16:56 Sunny 79 26.1 50 10 36 36 S 10 17 30.27 1025 10 16.0934 0 0
5:56 pm 17:56 Sunny 78 25.6 48 8.9 35 35 S 5 7 30.28 1026 10 16.0934 0 0
6:56 pm 18:56 Sunny 73 22.8 49 9.4 43 43 SSE 6 9 30.29 1026 10 16.0934 0 0
7:56 pm 19:56 Clear 68 20 47 8.3 47 47 SSE 6 9 30.31 1026 10 16.0934 0 0
8:56 pm 20:56 Clear 63 17.2 47 8.3 56 56 SSE 7 11 30.32 1027 10 16.0934 0 0
9:56 pm 21:56 Clear 64 17.8 47 8.3 54 54 SSE 9 15 30.33 1027 10 16.0934 0 0
10:56 pm 22:56 Clear 60 15.6 47 8.3 62 62 SSE 6 9 30.34 1028 10 16.0934 0 0
11:56 pm 23:56 Clear 60 15.6 47 8.3 62 62 S 7 11 30.35 1028 10 16.0934 0 0

Powered by AerisWeather